Location: Stull Observatory
(42.2506°N, 77.7903°W)
Time: 08:48:41
(UTC-04:00)

ISS - All Passes

Search period start: 20 April 2018 00:00
Search period end: 30 April 2018 00:00
Orbit: 403 x 406 km, 51.6° (Epoch: 20 April)

Date Brightness Start Highest point End Pass type
(mag) Time Alt. Az. Time Alt. Az. Time Alt. Az.
20 Apr - 10:14:37 10° SW 10:17:47 52° SE 10:21:00 10° ENE daylight
20 Apr - 11:51:34 10° W 11:54:25 27° NNW 11:57:18 10° NE daylight
20 Apr - 13:29:35 10° NW 13:31:41 16° N 13:33:49 10° NE daylight
20 Apr - 15:06:14 10° NW 15:09:00 24° NNE 15:11:47 10° ENE daylight
20 Apr - 16:42:28 10° WNW 16:45:44 66° SW 16:48:58 10° SE daylight
21 Apr - 09:22:50 10° SSW 09:25:40 27° SE 09:28:30 10° ENE daylight
21 Apr - 10:58:56 10° W 11:02:02 39° NNW 11:05:10 10° NE daylight
21 Apr - 12:36:57 10° NW 12:39:11 17° N 12:41:24 10° NE daylight
21 Apr - 14:14:04 10° NW 14:16:33 19° NNE 14:19:02 10° ENE daylight
21 Apr - 15:50:13 10° NW 15:53:30 68° NNE 15:56:46 10° ESE daylight
21 Apr - 17:27:41 10° W 17:29:37 15° SW 17:31:33 10° SSW daylight
22 Apr - 08:31:40 10° SSE 08:33:36 15° SE 08:35:32 10° E daylight
22 Apr - 10:06:29 10° WSW 10:09:43 67° NNW 10:12:59 10° NE daylight
22 Apr - 11:44:12 10° WNW 11:46:40 19° NNW 11:49:08 10° NE daylight
22 Apr - 13:21:48 10° NW 13:24:03 17° N 13:26:16 10° NE daylight
22 Apr - 14:58:02 10° NW 15:01:10 40° NNE 15:04:18 10° E daylight
22 Apr - 16:34:43 10° WNW 16:37:33 27° SW 16:40:23 10° SSE daylight
23 Apr - 09:14:14 10° SW 09:17:28 66° SE 09:20:43 10° ENE daylight
23 Apr - 10:51:26 10° WNW 10:54:11 24° NNW 10:56:57 10° NE daylight
23 Apr - 12:29:23 10° NW 12:31:30 16° N 12:33:36 10° NE daylight
23 Apr - 14:05:54 10° NW 14:08:46 27° NNE 14:11:38 10° E daylight
23 Apr - 15:42:11 10° WNW 15:45:24 52° SW 15:48:35 10° SE daylight
24 Apr - 08:22:17 10° SSW 08:25:16 34° SE 08:28:17 10° ENE daylight
24 Apr - 09:58:43 10° W 10:01:45 34° NNW 10:04:47 10° NE daylight
24 Apr - 11:36:46 10° NW 11:38:56 16° N 11:41:06 10° NE daylight
24 Apr - 13:13:43 10° NW 13:16:18 21° NNE 13:18:52 10° ENE daylight
24 Apr - 14:49:51 10° NW 14:53:10 83° NE 14:56:25 10° ESE daylight
24 Apr - 16:27:54 10° WSW 16:29:11 12° SW 16:30:26 10° SSW daylight
25 Apr - 07:30:48 10° S 07:33:09 18° SE 07:35:30 10° E daylight
25 Apr - 09:06:08 10° WSW 09:09:21 55° NNW 09:12:35 10° NE daylight
25 Apr - 10:44:00 10° WNW 10:46:22 18° N 10:48:45 10° NE daylight
25 Apr - 12:21:26 10° NW 12:23:45 17° N 12:26:04 10° NE daylight
25 Apr - 13:57:38 10° NW 14:00:49 47° NNE 14:04:00 10° ESE daylight
25 Apr - 15:34:30 10° W 15:37:06 22° SW 15:39:41 10° S daylight
26 Apr - 08:13:46 10° SW 08:17:02 83° SE 08:20:19 10° ENE daylight
26 Apr - 09:51:11 10° WNW 09:53:50 22° NNW 09:56:29 10° NE daylight
26 Apr - 11:29:03 10° NW 11:31:10 16° N 11:33:18 10° NE daylight
26 Apr - 13:05:25 10° NW 13:08:24 31° NNE 13:11:22 10° E daylight
26 Apr - 14:41:49 10° WNW 14:44:56 41° SW 14:48:02 10° SSE daylight
27 Apr - 07:21:40 10° SSW 07:24:47 42° SE 07:27:54 10° ENE daylight
27 Apr - 08:58:24 10° W 09:01:20 30° NNW 09:04:17 10° NE daylight
27 Apr - 10:36:27 10° NW 10:38:34 16° N 10:40:41 10° NE daylight
27 Apr - 12:13:13 10° NW 12:15:54 23° NNE 12:18:35 10° ENE daylight
27 Apr - 13:49:24 10° WNW 13:52:41 80° SW 13:55:56 10° SE daylight
28 Apr - 06:29:57 10° S 06:32:35 23° SE 06:35:14 10° E daylight
28 Apr - 08:05:44 10° WSW 08:08:53 45° NNW 08:12:04 10° NE daylight
28 Apr - 09:43:41 10° NW 09:45:58 17° N 09:48:14 10° NE daylight
28 Apr - 11:20:57 10° NW 11:23:20 18° NNE 11:25:43 10° ENE daylight
28 Apr - 12:57:05 10° NW 13:00:20 57° NNE 13:03:33 10° ESE daylight
28 Apr - 14:34:14 10° W 14:36:32 18° SW 14:38:49 10° S daylight
29 Apr - 05:39:05 10° SSE 05:40:28 12° SE 05:41:51 10° ESE visible
29 Apr - 07:13:14 10° WSW 07:16:30 80° NNW 07:19:47 10° NE daylight
29 Apr - 08:50:49 10° WNW 08:53:22 20° NNW 08:55:56 10° NE daylight
29 Apr - 10:28:33 10° NW 10:30:44 16° N 10:32:54 10° NE daylight
29 Apr - 12:04:51 10° NW 12:07:54 35° NNE 12:10:57 10° E daylight
29 Apr - 13:41:23 10° WNW 13:44:21 32° SW 13:47:20 10° SSE daylight
